Regional Weather Roundup
Issued by NWS

Home | Current Version | Previous Version | Graphics & Text | Print | Product List | Glossary On
Versions: 1 2 3 4 5 6 7 8 9 10 11 12 13 14 15 16 17 18 19 20 21 22 23 24 25 26 27 28 29 30 31 32 33 34 35 36 37 38 39 40 41 42 43 44 45 46 47 48 49 50
768
ASUS43 KOAX 031910
RWRNE

WEATHER ROUNDUP FOR NEBRASKA
NATIONAL WEATHER SERVICE OMAHA NE
200 PM CDT TUE MAY 03 2016

NOTES: SATELLITE DATA IS BEING USED TO AUGMENT CLOUD COVER ABOVE
       12000 FEET.
       "FAIR" INDICATES FEW OR NO CLOUDS BELOW 12,000 FEET WITH NO
       SIGNIFICANT WEATHER AND/OR OBSTRUCTIONS TO VISIBILITY.

  * THESE STATIONS DO NOT REPORT WEATHER SUCH AS RAIN...SNOW OR FOG.

NEZ001>004-019>022-054>056-032000-
NEBRASKA PANHANDLE

CITY           SKY/WX    TMP DP  RH WIND       PRES   REMARKS
SCOTTSBLUFF    SUNNY     70  35  27 N18       30.13F
ALLIANCE       SUNNY     66  31  27 N16G25    30.11F
CHADRON        SUNNY     69  32  25 N14       30.11F
KIMBALL        MOSUNNY   63  39  41 N16G28    30.18S
SIDNEY         SUNNY     64  35  34 N16G22    30.15F
$$

NEZ057>060-069>072-079>082-032000-
SOUTHWEST NEBRASKA

CITY           SKY/WX    TMP DP  RH WIND       PRES   REMARKS
NORTH PLATTE   SUNNY     63  43  48 NW7       30.09F
IMPERIAL       SUNNY     62  42  47 N9        30.11F
LEXINGTON      SUNNY     63  41  44 CALM      30.07F
MCCOOK         MOSUNNY   62  45  53 N9        30.09F
OGALLALA       SUNNY     63  37  38 N12       30.11F
$$

NEZ005>010-023>029-035>040-094-032000-
NORTH CENTRAL NEBRASKA

CITY           SKY/WX    TMP DP  RH WIND       PRES   REMARKS
VALENTINE      SUNNY     66  37  34 N14G20    30.06F
AINSWORTH      SUNNY     65  40  40 NW9G23    30.05F
BROKEN BOW     SUNNY     64  44  48 W8        30.06F
O`NEILL        SUNNY     66  43  42 W12G17    30.03F
ORD            MOSUNNY   65  42  43 W9        30.03F
THEDFORD       SUNNY     65  41  41 NW13G18   30.08F
$$

NEZ041-046>049-061>064-073>077-083>087-032000-
SOUTH CENTRAL NEBRASKA

CITY           SKY/WX    TMP DP  RH WIND       PRES   REMARKS
GRAND ISLAND   SUNNY     66  38  35 VRB5      30.05F
AURORA         SUNNY     65  38  37 W5        30.04F
HASTINGS       SUNNY     66  38  35 CALM      30.04F
HEBRON         SUNNY     66  37  34 W3        30.03F
HOLDREGE       SUNNY     64  38  39 CALM      30.06F
KEARNEY *      SUNNY     64  39  39 NW3       30.07F
YORK           SUNNY     66  41  39 W8        30.04F
$$

NEZ011>018-030>034-042>045-032000-
NORTHEAST NEBRASKA

CITY           SKY/WX    TMP DP  RH WIND       PRES   REMARKS
NORFOLK        MOSUNNY   68  41  37 W17G26    30.00F
ALBION         CLOUDY    66  41  39 W8G16     30.02F
BLAIR          PTSUNNY   66  42  40 SW16      30.00F
COLUMBUS *     PTSUNNY   66  39  37 W7        30.02F
FREMONT        MOSUNNY   67  43  41 W10       30.01F
TEKAMAH        PTSUNNY   67  43  41 W10       29.98F
WAYNE          PTSUNNY   68  43  41 W15G23    29.99F
$$

NEZ050>053-065>068-078-088>093-032000-
SOUTHEAST NEBRASKA

CITY           SKY/WX    TMP DP  RH WIND       PRES   REMARKS
LINCOLN        SUNNY     69  38  32 W7        30.03F
OMAHA EPPLEY   MOSUNNY   69  43  38 NW10      30.00F
BEATRICE       SUNNY     65  40  39 NE6       30.03F
FALLS CITY     PTSUNNY   64  43  46 W6        30.02F
NEBRASKA CITY  MOSUNNY   66  39  36 SW5       30.01F
PLATTSMOUTH    MOSUNNY   69  42  36 W14       30.01F THUNDER
$$

NEZ044-045-051>053-067-032000-
OMAHA AREA

CITY           SKY/WX    TMP DP  RH WIND       PRES   REMARKS
OMAHA EPPLEY   MOSUNNY   69  43  38 NW10      30.00F
BLAIR          PTSUNNY   66  42  40 SW16      30.00F
FREMONT        MOSUNNY   67  43  41 W10       30.01F
MILLARD        MOSUNNY   67  43  41 W8        30.00F
OFFUTT AFB     MOSUNNY   67  43  41 W7        30.00F
PLATTSMOUTH    MOSUNNY   69  42  36 W14       30.01F THUNDER
WAHOO          MOCLDY    68  40  36 W8        30.01F
$$




USA.gov is the U.S. government's official web portal to all federal, state and local government web resources and services.